"Pseudo-MPEC" for A10VCZE

Created 2023 Jun 2 14:22:03 UT using Find_Orb

Click here for an explanation of pseudo-MPECs

 
 Astrometry: 
     A10VCZE* C2023 05 28U5-dD.qF4tCE`f;9u]K.AstrometryZPr!Sredacted;6WUKdsJDM22
     A10VCZE  C2023 05 28\AkJhoVB[L\V/aC7]T8ojo$o3Q?2gaWclick8WE-3AhereC_#SIeM22
     A10VCZE  C2023 05 28rFVUb0G1T=iJ*uipbforPMarbu:+4q^760^meWg22^U\hP%_902mM22
     A10VCZE  C2023 05 28q_UFS:explanation[$SL;c0b)1?pwQTR3v)m5v#HCtaSAnmVrF(M22

Station data:
(M22) ATLAS South Africa, Sutherland  (S32.380156 E20.810590)  South Africa.
   Observers L. Denneau, R. Siverd, J. Tonry, H. Weiland. Measurers L.
   Denneau, N. Erasmus, A. Fitzsimmons, A. Lawrence, J. Robinson, R. Siverd,
   J. Tonry, H. Weiland. 0.5-m reflector + CCD.

Orbital elements:  A10VCZE
   Perihelion 2023 Apr 14.23699 +/- 57.5 TT =  5:41:15 (JD 2460048.73699)
Epoch 2023 May 29.0 TT = JDT 2460093.5   Earth MOID: 0.3029   Ma: 0.0062
M  12.62129076 +/- 22               (J2000 ecliptic)             AutoNEOCP
n   0.28195802 +/- 0.267            Peri.  263.32327 +/- 100
a   2.30327828 +/- 1.45             Node   315.03682 +/- 33
e   0.4316191 +/- 0.242             Incl.    1.20738 +/- 1.4
P   3.50                   H 19.26  G  0.15   U 11.9  SR
q 1.30913921 +/- 0.668    Q 3.29741736 +/- 44.2
From 4 observations 2023 May 28 (18.9 min); mean residual 0".21
Residuals in arcseconds: 
230528 M22  .29-  .03-    230528 M22  .37+  .17-    
230528 M22  .11+  .22+    230528 M22  .19-  .04+    

Ephemerides (geocentric):
Date (UTC) HH   RA             Dec           delta  r     elong  mag " sig PA
---- --------  ------------   ------------  ------ ------ -----  --- --------
2023 06 02 14  17 43 24.719   -27 06 32.51  .39066 1.3948 164.7 18.7  32d   0
2023 06 02 15  17 43 24.115   -27 06 26.93  .39073 1.3949 164.8 18.7  32d   0
2023 06 02 16  17 43 23.508   -27 06 21.35  .39081 1.3950 164.8 18.7  32d   0
2023 06 02 17  17 43 22.898   -27 06 15.76  .39089 1.3952 164.8 18.7  32d   0
2023 06 02 18  17 43 22.286   -27 06 10.15  .39097 1.3953 164.9 18.7  32d   0
2023 06 02 19  17 43 21.671   -27 06 04.54  .39105 1.3954 164.9 18.7  32d   0
2023 06 02 20  17 43 21.053   -27 05 58.92  .39113 1.3956 165.0 18.7  32d   0
2023 06 02 21  17 43 20.433   -27 05 53.29  .39121 1.3957 165.0 18.7  32d   0
2023 06 02 22  17 43 19.809   -27 05 47.65  .39129 1.3959 165.1 18.7  32d   0
2023 06 02 23  17 43 19.184   -27 05 42.00  .39137 1.3960 165.1 18.7  32d   0
2023 06 03 00  17 43 18.555   -27 05 36.34  .39145 1.3961 165.1 18.7  32d   0
2023 06 03 01  17 43 17.924   -27 05 30.68  .39153 1.3963 165.2 18.7  32d   0
2023 06 03 02  17 43 17.290   -27 05 25.00  .39161 1.3964 165.2 18.7  32d   0
2023 06 03 03  17 43 16.654   -27 05 19.31  .39169 1.3965 165.3 18.7  32d   0
2023 06 03 04  17 43 16.015   -27 05 13.62  .39177 1.3967 165.3 18.7  32d   0
2023 06 03 05  17 43 15.373   -27 05 07.92  .39185 1.3968 165.3 18.7  32d   0
2023 06 03 06  17 43 14.729   -27 05 02.20  .39193 1.3970 165.4 18.7  32d   0
2023 06 03 07  17 43 14.082   -27 04 56.48  .39201 1.3971 165.4 18.7  32d   0
2023 06 03 08  17 43 13.432   -27 04 50.75  .39210 1.3972 165.5 18.7  32d   0
2023 06 03 09  17 43 12.780   -27 04 45.01  .39218 1.3974 165.5 18.7  32d   0
2023 06 03 10  17 43 12.125   -27 04 39.26  .39226 1.3975 165.6 18.7  32d   0
2023 06 03 11  17 43 11.468   -27 04 33.51  .39234 1.3976 165.6 18.7  32d   0
2023 06 03 12  17 43 10.808   -27 04 27.74  .39243 1.3978 165.6 18.7  32d   0
2023 06 03 13  17 43 10.146   -27 04 21.96  .39251 1.3979 165.7 18.7  32d   0
2023 06 03 14  17 43 09.481   -27 04 16.18  .39259 1.3981 165.7 18.7  32d   0
2023 06 03 15  17 43 08.813   -27 04 10.38  .39268 1.3982 165.8 18.7  32d   0
2023 06 03 16  17 43 08.143   -27 04 04.58  .39276 1.3983 165.8 18.7  32d   0
2023 06 03 17  17 43 07.471   -27 03 58.77  .39284 1.3985 165.8 18.7  32d   0
2023 06 03 18  17 43 06.796   -27 03 52.95  .39293 1.3986 165.9 18.7  32d   0
2023 06 03 19  17 43 06.118   -27 03 47.12  .39301 1.3988 165.9 18.7  32d   0
2023 06 03 20  17 43 05.438   -27 03 41.28  .39310 1.3989 166.0 18.7  32d   0
2023 06 03 21  17 43 04.756   -27 03 35.43  .39318 1.3990 166.0 18.7  32d   0
2023 06 03 22  17 43 04.071   -27 03 29.58  .39327 1.3992 166.0 18.7  32d   0
2023 06 03 23  17 43 03.384   -27 03 23.71  .39335 1.3993 166.1 18.7  32d   0
2023 06 04 00  17 43 02.694   -27 03 17.84  .39344 1.3995 166.1 18.7  32d   0
2023 06 04 01  17 43 02.002   -27 03 11.96  .39352 1.3996 166.2 18.7  32d   0
2023 06 04 02  17 43 01.307   -27 03 06.06  .39361 1.3997 166.2 18.7  32d   0
2023 06 04 03  17 43 00.610   -27 03 00.16  .39370 1.3999 166.3 18.7  32d   0
2023 06 04 04  17 42 59.911   -27 02 54.26  .39378 1.4000 166.3 18.7  32d  10
2023 06 04 05  17 42 59.209   -27 02 48.34  .39387 1.4002 166.3 18.7  32d  10
2023 06 04 06  17 42 58.504   -27 02 42.41  .39396 1.4003 166.4 18.7  32d  10
2023 06 04 07  17 42 57.798   -27 02 36.48  .39404 1.4004 166.4 18.7  32d  10
2023 06 04 08  17 42 57.089   -27 02 30.53  .39413 1.4006 166.5 18.7  32d  10
2023 06 04 09  17 42 56.377   -27 02 24.58  .39422 1.4007 166.5 18.7  32d  10
2023 06 04 10  17 42 55.664   -27 02 18.62  .39431 1.4009 166.5 18.7  32d  10
2023 06 04 11  17 42 54.948   -27 02 12.65  .39439 1.4010 166.6 18.7  32d  10
2023 06 04 12  17 42 54.229   -27 02 06.67  .39448 1.4011 166.6 18.7  32d  10
2023 06 04 13  17 42 53.509   -27 02 00.68  .39457 1.4013 166.7 18.7  32d  10